This is the latest recevied weather packets stored in our database for station/object PA3FNT-13. If no packets are shown the sender has not sent any weather packets the latest 10 day(s).
| Time | Temp. | Humidity | Pressure | Rain* | Wind** | Luminosity | Snow |
|---|---|---|---|---|---|---|---|
| 1788331714 | 27.22° C | 38% | 1019.1 hPa | - | - | - | - |
| 1788330814 | 27.78° C | 37% | 1019.1 hPa | - | - | - | - |
| 1788329914 | 28.33° C | 37% | 1019 hPa | - | - | - | - |
| 1788329014 | 27.22° C | 38% | 1019.1 hPa | - | - | - | - |
| 1788328114 | 27.78° C | 37% | 1019 hPa | - | - | - | - |
| 1788327213 | 28.33° C | 36% | 1019.1 hPa | - | - | - | - |
| 1788326313 | 27.22° C | 39% | 1019 hPa | - | - | - | - |
| 1788325413 | 27.22° C | 39% | 1019 hPa | - | - | - | - |
| 1788324513 | 27.22° C | 38% | 1019 hPa | - | - | - | - |
| 1788323613 | 27.22° C | 37% | 1019 hPa | - | - | - | - |
| 1788322713 | 28.33° C | 35% | 1019 hPa | - | - | - | - |
| 1788321812 | 27.22° C | 38% | 1019.1 hPa | - | - | - | - |
| 1788320912 | 27.22° C | 38% | 1019.1 hPa | - | - | - | - |
| 1788320012 | 27.78° C | 38% | 1019.2 hPa | - | - | - | - |
| 1788319112 | 27.22° C | 38% | 1019.2 hPa | - | - | - | - |
| 1788318212 | 27.22° C | 38% | 1019.3 hPa | - | - | - | - |
| 1788317311 | 27.22° C | 38% | 1019.4 hPa | - | - | - | - |
| 1788316411 | 27.22° C | 38% | 1019.5 hPa | - | - | - | - |
| 1788315511 | 27.78° C | 38% | 1019.7 hPa | - | - | - | - |
| 1788314611 | 27.78° C | 38% | 1019.8 hPa | - | - | - | - |
| 1788313711 | 27.78° C | 38% | 1019.8 hPa | - | - | - | - |
| 1788312811 | 27.78° C | 38% | 1019.9 hPa | - | - | - | - |
| 1788311910 | 27.78° C | 37% | 1019.7 hPa | - | - | - | - |
| 1788311010 | 27.78° C | 37% | 1019.7 hPa | - | - | - | - |
| 1788310110 | 27.78° C | 38% | 1019.9 hPa | - | - | - | - |
* Rain since midnight (hover to see other rain measurements)
** Current wind speed in m/s (hover to see current wind gust speed)